Time,TemperatureF,DewpointF,PressureIn,WindDirection,WindDirectionDegrees,WindSpeedMPH,WindSpeedGustMPH,Humidity,HourlyPrecipIn,Conditions,Clouds,dailyrainin,SolarRadiationWatts/m^2,SoftwareType,DateUTC
2013-05-20 00:01:00,59.7,42.1,30.12,SW,234,0.0,0.0,52,0.00,,,0.00,0.0,meteohub,2013-05-20 07:01:00,
2013-05-20 00:06:00,59.5,41.9,30.12,SW,234,0.0,0.0,52,0.00,,,0.00,0.0,meteohub,2013-05-20 07:06:00,
2013-05-20 00:11:00,59.4,42.3,30.12,SW,234,0.0,0.0,53,0.00,,,0.00,0.0,meteohub,2013-05-20 07:11:00,
2013-05-20 00:16:00,59.2,42.1,30.12,SW,234,0.0,0.0,53,0.00,,,0.00,0.0,meteohub,2013-05-20 07:16:00,
2013-05-20 00:21:00,59.2,42.6,30.12,SW,234,0.0,0.0,54,0.00,,,0.00,0.0,meteohub,2013-05-20 07:21:00,
2013-05-20 00:27:00,59.2,42.1,30.12,SW,234,0.0,0.0,53,0.00,,,0.00,0.0,meteohub,2013-05-20 07:27:00,
2013-05-20 00:32:00,59.2,42.6,30.12,SW,234,0.0,0.0,54,0.00,,,0.00,0.0,meteohub,2013-05-20 07:32:00,
2013-05-20 00:37:00,59.0,42.8,30.11,SW,234,0.0,0.0,55,0.00,,,0.00,0.0,meteohub,2013-05-20 07:37:00,
2013-05-20 00:42:00,59.0,42.8,30.11,SW,234,0.0,0.0,55,0.00,,,0.00,0.0,meteohub,2013-05-20 07:42:00,
2013-05-20 00:47:00,59.2,43.0,30.12,SW,234,0.0,0.0,55,0.00,,,0.00,0.0,meteohub,2013-05-20 07:47:00,
2013-05-20 00:52:00,59.4,43.2,30.12,SW,234,0.0,0.0,55,0.00,,,0.00,0.0,meteohub,2013-05-20 07:52:00,
2013-05-20 00:57:00,59.5,43.3,30.11,SW,234,0.0,1.0,55,0.00,,,0.00,0.0,meteohub,2013-05-20 07:57:00,
2013-05-20 01:02:00,59.7,43.5,30.11,SW,234,0.0,1.0,55,0.00,,,0.00,0.0,meteohub,2013-05-20 08:02:00,
2013-05-20 01:07:00,60.1,43.3,30.11,SW,234,0.0,1.0,54,0.00,,,0.00,0.0,meteohub,2013-05-20 08:07:00,
2013-05-20 01:12:00,60.4,43.7,30.11,SW,234,0.0,1.0,54,0.00,,,0.00,0.0,meteohub,2013-05-20 08:12:00,
2013-05-20 01:17:00,60.8,44.1,30.11,SW,234,0.0,1.0,54,0.00,,,0.00,0.0,meteohub,2013-05-20 08:17:00,
2013-05-20 01:22:00,61.2,43.9,30.11,SW,234,0.0,1.0,53,0.00,,,0.00,0.0,meteohub,2013-05-20 08:22:00,
2013-05-20 01:28:00,61.3,44.1,30.11,SW,234,0.0,1.0,53,0.00,,,0.00,0.0,meteohub,2013-05-20 08:28:00,
2013-05-20 01:33:00,61.3,44.1,30.11,SW,234,0.0,1.0,53,0.00,,,0.00,0.0,meteohub,2013-05-20 08:33:00,
2013-05-20 01:38:00,61.7,44.4,30.11,SW,234,0.0,0.0,53,0.00,,,0.00,0.0,meteohub,2013-05-20 08:38:00,
2013-05-20 01:43:00,61.9,44.6,30.11,SW,234,0.0,1.0,53,0.00,,,0.00,0.0,meteohub,2013-05-20 08:43:00,
2013-05-20 01:48:00,61.9,44.6,30.11,SW,234,0.0,1.0,53,0.00,,,0.00,0.0,meteohub,2013-05-20 08:48:00,
2013-05-20 01:54:00,61.9,44.6,30.11,SW,234,0.0,1.0,53,0.00,,,0.00,0.0,meteohub,2013-05-20 08:54:00,
2013-05-20 01:59:00,61.9,44.6,30.11,SW,234,0.0,0.0,53,0.00,,,0.00,0.0,meteohub,2013-05-20 08:59:00,
2013-05-20 02:04:00,61.7,44.4,30.11,SW,234,0.0,0.0,53,0.00,,,0.00,0.0,meteohub,2013-05-20 09:04:00,
2013-05-20 02:09:00,61.7,44.4,30.11,SW,234,0.0,0.0,53,0.00,,,0.00,0.0,meteohub,2013-05-20 09:09:00,
2013-05-20 02:14:00,61.5,44.2,30.11,SW,234,0.0,1.0,53,0.00,,,0.00,0.0,meteohub,2013-05-20 09:14:00,
2013-05-20 02:19:00,61.5,44.8,30.11,SW,234,0.0,1.0,54,0.00,,,0.00,0.0,meteohub,2013-05-20 09:19:00,
2013-05-20 02:24:00,61.5,44.8,30.11,SW,234,0.0,1.0,54,0.00,,,0.00,0.0,meteohub,2013-05-20 09:24:00,
2013-05-20 02:29:00,61.7,44.4,30.11,SW,234,0.0,0.0,53,0.00,,,0.00,0.0,meteohub,2013-05-20 09:29:00,
2013-05-20 02:34:00,61.9,44.6,30.11,SW,234,0.0,1.0,53,0.00,,,0.00,0.0,meteohub,2013-05-20 09:34:00,
2013-05-20 02:40:00,61.9,44.6,30.11,SW,234,0.0,1.0,53,0.00,,,0.00,0.0,meteohub,2013-05-20 09:40:00,
2013-05-20 02:45:00,61.7,44.4,30.11,SW,234,0.0,1.0,53,0.00,,,0.00,0.0,meteohub,2013-05-20 09:45:00,
2013-05-20 02:50:00,61.7,44.4,30.11,SW,234,0.0,0.0,53,0.00,,,0.00,0.0,meteohub,2013-05-20 09:50:00,
2013-05-20 02:55:00,61.5,44.2,30.12,SW,234,0.0,0.0,53,0.00,,,0.00,0.0,meteohub,2013-05-20 09:55:00,
2013-05-20 03:00:00,61.5,44.2,30.11,SW,234,0.0,0.0,53,0.00,,,0.00,0.0,meteohub,2013-05-20 10:00:00,
2013-05-20 03:05:00,61.3,44.6,30.11,SW,234,0.0,0.0,54,0.00,,,0.00,0.0,meteohub,2013-05-20 10:05:00,
2013-05-20 03:10:00,60.8,44.6,30.11,SW,234,0.0,0.0,55,0.00,,,0.00,0.0,meteohub,2013-05-20 10:10:00,
2013-05-20 03:15:00,60.1,43.9,30.11,SW,234,0.0,1.0,55,0.00,,,0.00,0.0,meteohub,2013-05-20 10:15:00,
2013-05-20 03:20:00,59.7,44.1,30.12,SW,234,0.0,1.0,56,0.00,,,0.00,0.0,meteohub,2013-05-20 10:20:00,
2013-05-20 03:26:00,59.4,44.1,30.12,SW,234,0.0,1.0,57,0.00,,,0.00,0.0,meteohub,2013-05-20 10:26:00,
2013-05-20 03:31:00,58.8,43.7,30.12,SW,234,0.0,1.0,57,0.00,,,0.00,0.0,meteohub,2013-05-20 10:31:00,
2013-05-20 03:36:00,58.6,43.9,30.11,SW,234,0.0,1.0,58,0.00,,,0.00,0.0,meteohub,2013-05-20 10:36:00,
2013-05-20 03:41:00,58.3,43.5,30.12,SW,234,0.0,1.0,58,0.00,,,0.00,0.0,meteohub,2013-05-20 10:41:00,
2013-05-20 03:46:00,58.1,43.3,30.11,SW,234,0.0,1.0,58,0.00,,,0.00,0.0,meteohub,2013-05-20 10:46:00,
2013-05-20 03:51:00,57.6,43.3,30.11,SW,234,0.0,1.0,59,0.00,,,0.00,0.0,meteohub,2013-05-20 10:51:00,
2013-05-20 03:56:00,57.4,43.2,30.11,SW,234,0.0,1.0,59,0.00,,,0.00,0.0,meteohub,2013-05-20 10:56:00,
2013-05-20 04:01:00,57.2,42.6,30.11,SW,234,0.0,1.0,58,0.00,,,0.00,0.0,meteohub,2013-05-20 11:01:00,
2013-05-20 04:06:00,57.2,43.0,30.11,SW,234,0.0,1.0,59,0.00,,,0.00,0.0,meteohub,2013-05-20 11:06:00,
2013-05-20 04:11:00,57.4,43.2,30.11,SW,234,0.0,0.0,59,0.00,,,0.00,0.0,meteohub,2013-05-20 11:11:00,
2013-05-20 04:17:00,57.4,43.2,30.11,SW,234,0.0,0.0,59,0.00,,,0.00,0.0,meteohub,2013-05-20 11:17:00,
2013-05-20 04:22:00,57.6,43.3,30.11,SW,234,0.0,1.0,59,0.00,,,0.00,0.0,meteohub,2013-05-20 11:22:00,
2013-05-20 04:27:00,57.7,43.0,30.11,SW,234,0.0,1.0,58,0.00,,,0.00,0.0,meteohub,2013-05-20 11:27:00,
2013-05-20 04:32:00,57.9,42.8,30.11,SW,234,0.0,1.0,57,0.00,,,0.00,0.0,meteohub,2013-05-20 11:32:00,
2013-05-20 04:37:00,58.1,43.3,30.11,SW,234,0.0,0.0,58,0.00,,,0.00,0.0,meteohub,2013-05-20 11:37:00,
2013-05-20 04:42:00,58.1,43.0,30.11,SW,234,0.0,0.0,57,0.00,,,0.00,0.0,meteohub,2013-05-20 11:42:00,
2013-05-20 04:47:00,57.9,42.8,30.11,SW,234,0.0,0.0,57,0.00,,,0.00,0.0,meteohub,2013-05-20 11:47:00,
2013-05-20 04:52:00,57.7,42.6,30.11,SW,234,0.0,0.0,57,0.00,,,0.00,0.0,meteohub,2013-05-20 11:52:00,
2013-05-20 04:57:00,57.7,42.6,30.11,SW,234,0.0,1.0,57,0.00,,,0.00,0.0,meteohub,2013-05-20 11:57:00,
2013-05-20 05:02:00,57.9,42.8,30.11,SW,234,0.0,1.0,57,0.00,,,0.00,0.0,meteohub,2013-05-20 12:02:00,
2013-05-20 05:07:00,57.9,42.3,30.11,SW,234,0.0,1.0,56,0.00,,,0.00,0.0,meteohub,2013-05-20 12:07:00,
2013-05-20 05:12:00,57.9,42.3,30.11,SW,234,0.0,0.0,56,0.00,,,0.00,0.0,meteohub,2013-05-20 12:12:00,
2013-05-20 05:17:00,58.1,42.1,30.11,SW,234,0.0,0.0,55,0.00,,,0.00,0.0,meteohub,2013-05-20 12:17:00,
2013-05-20 05:22:00,58.5,41.9,30.10,SW,234,0.0,1.0,54,0.00,,,0.00,0.0,meteohub,2013-05-20 12:22:00,
2013-05-20 05:27:00,58.6,41.5,30.10,SW,234,0.0,1.0,53,0.00,,,0.00,0.0,meteohub,2013-05-20 12:27:00,
2013-05-20 05:32:00,58.6,41.5,30.10,SW,234,0.0,0.0,53,0.00,,,0.00,0.0,meteohub,2013-05-20 12:32:00,
2013-05-20 05:37:00,58.8,41.7,30.11,SW,234,0.0,0.0,53,0.00,,,0.00,0.0,meteohub,2013-05-20 12:37:00,
2013-05-20 05:43:00,58.8,42.3,30.11,SW,234,0.0,0.0,54,0.00,,,0.00,0.0,meteohub,2013-05-20 12:43:00,
2013-05-20 05:48:00,58.6,41.5,30.11,SW,234,0.0,0.0,53,0.00,,,0.00,0.0,meteohub,2013-05-20 12:48:00,
2013-05-20 05:53:00,58.5,41.9,30.11,SW,234,0.0,1.0,54,0.00,,,0.00,0.0,meteohub,2013-05-20 12:53:00,
2013-05-20 05:58:00,58.5,41.4,30.11,SW,234,0.0,1.0,53,0.00,,,0.00,0.0,meteohub,2013-05-20 12:58:00,
2013-05-20 06:03:00,58.5,40.8,30.11,SW,234,0.0,0.0,52,0.00,,,0.00,0.0,meteohub,2013-05-20 13:03:00,
2013-05-20 06:08:00,58.8,41.2,30.11,SW,234,0.0,0.0,52,0.00,,,0.00,5.0,meteohub,2013-05-20 13:08:00,
2013-05-20 06:13:00,59.2,41.0,30.11,SW,234,0.0,0.0,51,0.00,,,0.00,7.0,meteohub,2013-05-20 13:13:00,
2013-05-20 06:18:00,59.5,41.4,30.11,SW,234,0.0,0.0,51,0.00,,,0.00,9.0,meteohub,2013-05-20 13:18:00,
2013-05-20 06:23:00,60.1,41.4,30.12,SW,234,0.0,0.0,50,0.00,,,0.00,9.0,meteohub,2013-05-20 13:23:00,
2013-05-20 06:29:00,60.3,41.5,30.12,SW,234,0.0,0.0,50,0.00,,,0.00,11.0,meteohub,2013-05-20 13:29:00,
2013-05-20 06:34:00,60.4,41.7,30.12,SW,234,0.0,0.0,50,0.00,,,0.00,11.0,meteohub,2013-05-20 13:34:00,
2013-05-20 06:39:00,60.6,42.4,30.12,SW,234,0.0,0.0,51,0.00,,,0.00,12.0,meteohub,2013-05-20 13:39:00,
2013-05-20 06:44:00,60.8,42.1,30.12,SW,234,0.0,0.0,50,0.00,,,0.00,12.0,meteohub,2013-05-20 13:44:00,
2013-05-20 06:49:00,60.8,42.6,30.12,SW,234,0.0,0.0,51,0.00,,,0.00,14.0,meteohub,2013-05-20 13:49:00,
2013-05-20 06:54:00,60.6,42.4,30.12,SW,234,0.0,0.0,51,0.00,,,0.00,14.0,meteohub,2013-05-20 13:54:00,
2013-05-20 06:59:00,60.6,41.9,30.12,SW,234,0.0,0.0,50,0.00,,,0.00,16.0,meteohub,2013-05-20 13:59:00,
2013-05-20 07:04:00,60.8,42.1,30.12,SW,234,0.0,0.0,50,0.00,,,0.00,16.0,meteohub,2013-05-20 14:04:00,
2013-05-20 07:09:00,61.0,42.3,30.12,SW,234,0.0,0.0,50,0.00,,,0.00,18.0,meteohub,2013-05-20 14:09:00,
2013-05-20 07:15:00,61.2,43.3,30.12,SW,234,0.0,0.0,52,0.00,,,0.00,18.0,meteohub,2013-05-20 14:15:00,
2013-05-20 07:20:00,61.2,43.9,30.12,SW,234,0.0,0.0,53,0.00,,,0.00,18.0,meteohub,2013-05-20 14:20:00,
2013-05-20 07:25:00,61.3,44.1,30.12,SW,234,0.0,0.0,53,0.00,,,0.00,18.0,meteohub,2013-05-20 14:25:00,
2013-05-20 07:30:00,61.5,44.8,30.13,SW,234,0.0,0.0,54,0.00,,,0.00,23.0,meteohub,2013-05-20 14:30:00,
2013-05-20 07:35:00,61.9,44.1,30.13,SW,234,0.0,0.0,52,0.00,,,0.00,19.0,meteohub,2013-05-20 14:35:00,
2013-05-20 07:40:00,62.2,43.9,30.13,SW,234,0.0,0.0,51,0.00,,,0.00,19.0,meteohub,2013-05-20 14:40:00,
2013-05-20 07:45:00,62.6,43.7,30.13,SW,234,0.0,0.0,50,0.00,,,0.00,19.0,meteohub,2013-05-20 14:45:00,
2013-05-20 07:50:00,63.3,42.8,30.13,SW,234,0.0,0.0,47,0.00,,,0.00,21.0,meteohub,2013-05-20 14:50:00,
2013-05-20 07:55:00,64.6,41.5,30.12,SW,234,0.0,1.0,43,0.00,,,0.00,21.0,meteohub,2013-05-20 14:55:00,
2013-05-20 08:00:00,65.7,42.6,30.12,SW,234,0.0,1.0,43,0.00,,,0.00,21.0,meteohub,2013-05-20 15:00:00,
2013-05-20 08:05:00,66.6,42.1,30.13,SW,234,0.0,1.0,41,0.00,,,0.00,21.0,meteohub,2013-05-20 15:05:00,
2013-05-20 08:10:00,67.5,41.7,30.12,SW,234,0.0,1.0,39,0.00,,,0.00,28.0,meteohub,2013-05-20 15:10:00,
2013-05-20 08:16:00,68.5,41.9,30.12,SW,234,0.0,2.0,38,0.00,,,0.00,23.0,meteohub,2013-05-20 15:16:00,
2013-05-20 08:21:00,69.3,41.9,30.12,SW,234,0.0,2.0,37,0.00,,,0.00,25.0,meteohub,2013-05-20 15:21:00,
2013-05-20 08:26:00,69.6,42.3,30.13,SW,234,0.0,2.0,37,0.00,,,0.00,23.0,meteohub,2013-05-20 15:26:00,
2013-05-20 08:31:00,69.6,43.5,30.13,SW,234,0.0,1.0,39,0.00,,,0.00,25.0,meteohub,2013-05-20 15:31:00,
2013-05-20 08:36:00,70.2,42.6,30.13,SW,234,0.0,1.0,37,0.00,,,0.00,25.0,meteohub,2013-05-20 15:36:00,
2013-05-20 08:41:00,70.5,41.5,30.13,SW,234,1.0,1.0,35,0.00,,,0.00,25.0,meteohub,2013-05-20 15:41:00,
2013-05-20 08:46:00,71.1,40.5,30.13,SW,233,0.0,1.0,33,0.00,,,0.00,26.0,meteohub,2013-05-20 15:46:00,
2013-05-20 08:51:00,71.4,40.1,30.13,South,172,0.0,1.0,32,0.00,,,0.00,26.0,meteohub,2013-05-20 15:51:00,
2013-05-20 08:56:00,72.0,41.4,30.13,South,169,0.0,1.0,33,0.00,,,0.00,26.0,meteohub,2013-05-20 15:56:00,
2013-05-20 09:02:00,72.0,40.5,30.13,South,169,0.0,1.0,32,0.00,,,0.00,39.0,meteohub,2013-05-20 16:02:00,
2013-05-20 09:07:00,72.1,40.6,30.13,SSE,168,0.0,1.0,32,0.00,,,0.00,28.0,meteohub,2013-05-20 16:07:00,
2013-05-20 09:12:00,72.5,39.4,30.14,ENE,65,0.0,2.0,30,0.00,,,0.00,28.0,meteohub,2013-05-20 16:12:00,
2013-05-20 09:17:00,72.7,40.3,30.13,NNE,23,0.0,3.0,31,0.00,,,0.00,30.0,meteohub,2013-05-20 16:17:00,
2013-05-20 09:22:00,72.9,40.5,30.13,NNE,23,0.0,3.0,31,0.00,,,0.00,30.0,meteohub,2013-05-20 16:22:00,
2013-05-20 09:27:00,73.2,40.8,30.13,East,80,0.0,3.0,31,0.00,,,0.00,32.0,meteohub,2013-05-20 16:27:00,
2013-05-20 09:32:00,73.6,39.4,30.13,ENE,66,0.0,5.0,29,0.00,,,0.00,33.0,meteohub,2013-05-20 16:32:00,
2013-05-20 09:37:00,73.9,38.8,30.13,ENE,66,3.0,5.0,28,0.00,,,0.00,33.0,meteohub,2013-05-20 16:37:00,
2013-05-20 09:42:00,74.3,39.9,30.13,ENE,71,2.0,5.0,29,0.00,,,0.00,33.0,meteohub,2013-05-20 16:42:00,
2013-05-20 09:47:00,74.7,40.3,30.13,ENE,67,1.0,5.0,29,0.00,,,0.00,35.0,meteohub,2013-05-20 16:47:00,
2013-05-20 09:52:00,75.0,40.6,30.13,WNW,301,0.0,5.0,29,0.00,,,0.00,42.0,meteohub,2013-05-20 16:52:00,
2013-05-20 09:57:00,75.0,40.6,30.12,SW,216,0.0,4.0,29,0.00,,,0.00,39.0,meteohub,2013-05-20 16:57:00,
2013-05-20 10:02:00,75.4,40.1,30.12,SE,144,1.0,4.0,28,0.00,,,0.00,40.0,meteohub,2013-05-20 17:02:00,
2013-05-20 10:07:00,75.6,40.1,30.12,ENE,77,2.0,3.0,28,0.00,,,0.00,42.0,meteohub,2013-05-20 17:07:00,
2013-05-20 10:12:00,75.9,41.4,30.12,NNE,33,1.0,3.0,29,0.00,,,0.00,42.0,meteohub,2013-05-20 17:12:00,
2013-05-20 10:17:00,76.1,40.6,30.12,ENE,71,0.0,3.0,28,0.00,,,0.00,44.0,meteohub,2013-05-20 17:17:00,
2013-05-20 10:22:00,76.5,41.0,30.13,ESE,113,0.0,3.0,28,0.00,,,0.00,218.0,meteohub,2013-05-20 17:22:00,
2013-05-20 10:27:00,76.8,39.4,30.12,ENE,72,2.0,3.0,26,0.00,,,0.00,100.0,meteohub,2013-05-20 17:27:00,
2013-05-20 10:32:00,77.2,39.6,30.12,North,5,2.0,3.0,26,0.00,,,0.00,580.0,meteohub,2013-05-20 17:32:00,
2013-05-20 10:37:00,77.5,41.0,30.12,NW,319,0.0,5.0,27,0.00,,,0.00,763.0,meteohub,2013-05-20 17:37:00,
2013-05-20 10:42:00,77.9,40.3,30.12,NNW,341,0.0,6.0,26,0.00,,,0.00,775.0,meteohub,2013-05-20 17:42:00,
2013-05-20 10:47:00,78.4,39.7,30.12,NW,308,1.0,6.0,25,0.00,,,0.00,788.0,meteohub,2013-05-20 17:47:00,
2013-05-20 10:52:00,79.2,38.1,30.12,SW,235,0.0,2.0,23,0.00,,,0.00,798.0,meteohub,2013-05-20 17:52:00,
2013-05-20 10:57:00,79.9,38.8,30.12,SSW,202,1.0,2.0,23,0.00,,,0.00,810.0,meteohub,2013-05-20 17:57:00,
2013-05-20 11:03:00,80.2,37.9,30.12,ENE,75,2.0,3.0,22,0.00,,,0.00,819.0,meteohub,2013-05-20 18:03:00,
2013-05-20 11:08:00,80.6,38.3,30.12,ENE,75,0.0,6.0,22,0.00,,,0.00,578.0,meteohub,2013-05-20 18:08:00,
2013-05-20 11:13:00,81.1,38.7,30.12,ENE,75,0.0,6.0,22,0.00,,,0.00,139.0,meteohub,2013-05-20 18:13:00,
2013-05-20 11:18:00,82.0,38.3,30.12,NE,43,2.0,6.0,21,0.00,,,0.00,58.0,meteohub,2013-05-20 18:18:00,
2013-05-20 11:23:00,82.2,39.6,30.12,NE,35,0.0,4.0,22,0.00,,,0.00,60.0,meteohub,2013-05-20 18:23:00,
2013-05-20 11:28:00,82.9,39.0,30.12,West,266,0.0,3.0,21,0.00,,,0.00,60.0,meteohub,2013-05-20 18:28:00,
2013-05-20 11:33:00,83.3,39.4,30.13,North,9,1.0,4.0,21,0.00,,,0.00,60.0,meteohub,2013-05-20 18:33:00,
2013-05-20 11:38:00,84.4,40.1,30.13,ENE,69,2.0,4.0,21,0.00,,,0.00,62.0,meteohub,2013-05-20 18:38:00,
2013-05-20 11:43:00,84.4,37.6,30.12,NW,312,1.0,4.0,19,0.00,,,0.00,62.0,meteohub,2013-05-20 18:43:00,
2013-05-20 11:48:00,84.6,37.8,30.12,WSW,248,0.0,5.0,19,0.00,,,0.00,63.0,meteohub,2013-05-20 18:48:00,
2013-05-20 11:54:00,85.3,37.0,30.12,West,275,1.0,5.0,18,0.00,,,0.00,65.0,meteohub,2013-05-20 18:54:00,
2013-05-20 11:59:00,84.6,36.3,30.12,ENE,71,1.0,5.0,18,0.00,,,0.00,65.0,meteohub,2013-05-20 18:59:00,
2013-05-20 12:04:00,84.0,36.0,30.12,ENE,72,1.0,7.0,18,0.00,,,0.00,65.0,meteohub,2013-05-20 19:04:00,
2013-05-20 12:09:00,83.7,35.6,30.12,ENE,67,2.0,7.0,18,0.00,,,0.00,67.0,meteohub,2013-05-20 19:09:00,
2013-05-20 12:14:00,84.2,36.1,30.12,WSW,242,0.0,7.0,18,0.00,,,0.00,183.0,meteohub,2013-05-20 19:14:00,
2013-05-20 12:19:00,84.7,37.9,30.12,NE,42,0.0,5.0,19,0.00,,,0.00,761.0,meteohub,2013-05-20 19:19:00,
2013-05-20 12:24:00,84.9,36.7,30.11,NE,56,0.0,5.0,18,0.00,,,0.00,939.0,meteohub,2013-05-20 19:24:00,
2013-05-20 12:29:00,85.1,36.9,30.11,NW,309,3.0,3.0,18,0.00,,,0.00,949.0,meteohub,2013-05-20 19:29:00,
2013-05-20 12:35:00,85.1,36.9,30.11,NE,43,1.0,4.0,18,0.00,,,0.00,947.0,meteohub,2013-05-20 19:35:00,
2013-05-20 12:40:00,85.1,35.4,30.11,NE,55,1.0,4.0,17,0.00,,,0.00,953.0,meteohub,2013-05-20 19:40:00,
2013-05-20 12:45:00,85.3,34.0,30.11,SE,124,1.0,4.0,16,0.00,,,0.00,953.0,meteohub,2013-05-20 19:45:00,
2013-05-20 12:50:00,85.3,32.4,30.11,SSE,149,0.0,4.0,15,0.00,,,0.00,956.0,meteohub,2013-05-20 19:50:00,
2013-05-20 12:55:00,85.5,30.9,30.11,NNE,27,2.0,4.0,14,0.00,,,0.00,958.0,meteohub,2013-05-20 19:55:00,
2013-05-20 13:00:00,86.4,33.3,30.11,SW,219,0.0,4.0,15,0.00,,,0.00,960.0,meteohub,2013-05-20 20:00:00,
2013-05-20 13:05:00,86.7,31.8,30.11,South,191,2.0,4.0,14,0.00,,,0.00,956.0,meteohub,2013-05-20 20:05:00,
2013-05-20 13:10:00,87.4,34.2,30.11,ENE,59,1.0,3.0,15,0.00,,,0.00,958.0,meteohub,2013-05-20 20:10:00,
2013-05-20 13:15:00,87.3,34.0,30.11,ENE,70,1.0,3.0,15,0.00,,,0.00,960.0,meteohub,2013-05-20 20:15:00,
2013-05-20 13:21:00,87.4,34.2,30.10,East,92,1.0,5.0,15,0.00,,,0.00,984.0,meteohub,2013-05-20 20:21:00,
2013-05-20 13:26:00,88.5,36.7,30.10,NNE,24,1.0,5.0,16,0.00,,,0.00,960.0,meteohub,2013-05-20 20:26:00,
2013-05-20 13:31:00,88.5,35.1,30.10,North,5,2.0,3.0,15,0.00,,,0.00,958.0,meteohub,2013-05-20 20:31:00,
2013-05-20 13:36:00,89.1,37.0,30.10,West,275,4.0,5.0,16,0.00,,,0.00,958.0,meteohub,2013-05-20 20:36:00,
2013-05-20 13:41:00,90.1,34.5,30.10,WSW,257,4.0,5.0,14,0.00,,,0.00,954.0,meteohub,2013-05-20 20:41:00,
2013-05-20 13:47:00,89.8,36.0,30.09,NNE,24,0.0,6.0,15,0.00,,,0.00,956.0,meteohub,2013-05-20 20:47:00,
2013-05-20 13:52:00,89.2,37.2,30.09,NNW,344,0.0,6.0,16,0.00,,,0.00,954.0,meteohub,2013-05-20 20:52:00,
2013-05-20 13:57:00,88.9,36.9,30.09,North,9,2.0,6.0,16,0.00,,,0.00,954.0,meteohub,2013-05-20 20:57:00,
2013-05-20 14:02:00,88.3,36.5,30.09,ENE,68,3.0,5.0,16,0.00,,,0.00,946.0,meteohub,2013-05-20 21:02:00,
2013-05-20 14:07:00,88.5,36.7,30.09,WNW,300,0.0,5.0,16,0.00,,,0.00,935.0,meteohub,2013-05-20 21:07:00,
2013-05-20 14:12:00,89.4,35.6,30.09,SW,221,1.0,4.0,15,0.00,,,0.00,918.0,meteohub,2013-05-20 21:12:00,
2013-05-20 14:17:00,90.3,43.9,30.09,SSE,148,7.0,7.0,20,0.00,,,0.00,916.0,meteohub,2013-05-20 21:17:00,
2013-05-20 14:22:00,90.1,43.7,30.09,WSW,255,5.0,10.0,20,0.00,,,0.00,905.0,meteohub,2013-05-20 21:22:00,
2013-05-20 14:27:00,90.1,45.0,30.09,WNW,296,4.0,10.0,21,0.00,,,0.00,911.0,meteohub,2013-05-20 21:27:00,
2013-05-20 14:32:00,90.1,43.7,30.08,SW,228,3.0,10.0,20,0.00,,,0.00,902.0,meteohub,2013-05-20 21:32:00,
2013-05-20 14:37:00,90.3,43.9,30.08,SW,236,7.0,9.0,20,0.00,,,0.00,877.0,meteohub,2013-05-20 21:37:00,
2013-05-20 14:42:00,89.4,41.7,30.09,SW,219,6.0,10.0,19,0.00,,,0.00,882.0,meteohub,2013-05-20 21:42:00,
2013-05-20 14:48:00,88.3,40.8,30.08,West,261,8.0,12.0,19,0.00,,,0.00,870.0,meteohub,2013-05-20 21:48:00,
2013-05-20 14:53:00,88.3,43.5,30.08,WSW,237,5.0,12.0,21,0.00,,,0.00,867.0,meteohub,2013-05-20 21:53:00,
2013-05-20 14:58:00,88.3,42.3,30.08,West,276,6.0,12.0,20,0.00,,,0.00,872.0,meteohub,2013-05-20 21:58:00,
2013-05-20 15:03:00,88.7,42.4,30.08,WSW,237,4.0,12.0,20,0.00,,,0.00,863.0,meteohub,2013-05-20 22:03:00,
2013-05-20 15:08:00,88.9,41.4,30.08,West,273,4.0,10.0,19,0.00,,,0.00,860.0,meteohub,2013-05-20 22:08:00,
2013-05-20 15:13:00,88.9,39.9,30.08,SSW,207,7.0,10.0,18,0.00,,,0.00,853.0,meteohub,2013-05-20 22:13:00,
2013-05-20 15:18:00,87.8,40.5,30.07,SW,229,4.0,11.0,19,0.00,,,0.00,847.0,meteohub,2013-05-20 22:18:00,
2013-05-20 15:23:00,87.6,40.3,30.07,SW,227,4.0,11.0,19,0.00,,,0.00,838.0,meteohub,2013-05-20 22:23:00,
2013-05-20 15:28:00,87.4,40.1,30.07,SW,225,6.0,11.0,19,0.00,,,0.00,809.0,meteohub,2013-05-20 22:28:00,
2013-05-20 15:33:00,86.5,37.9,30.06,SW,227,7.0,11.0,18,0.00,,,0.00,817.0,meteohub,2013-05-20 22:33:00,
2013-05-20 15:38:00,86.2,40.5,30.07,SW,236,8.0,12.0,20,0.00,,,0.00,823.0,meteohub,2013-05-20 22:38:00,
2013-05-20 15:43:00,85.8,37.4,30.07,WSW,240,11.0,12.0,18,0.00,,,0.00,779.0,meteohub,2013-05-20 22:43:00,
2013-05-20 15:49:00,85.3,37.0,30.07,SW,227,13.0,14.0,18,0.00,,,0.00,759.0,meteohub,2013-05-20 22:49:00,
2013-05-20 15:54:00,84.7,36.5,30.07,SSW,199,7.0,18.0,18,0.00,,,0.00,758.0,meteohub,2013-05-20 22:54:00,
2013-05-20 15:59:00,84.0,36.0,30.07,West,259,6.0,18.0,18,0.00,,,0.00,765.0,meteohub,2013-05-20 22:59:00,
2013-05-20 16:04:00,83.8,38.5,30.07,WSW,252,8.0,15.0,20,0.00,,,0.00,759.0,meteohub,2013-05-20 23:04:00,
2013-05-20 16:09:00,84.4,37.6,30.06,WSW,241,8.0,15.0,19,0.00,,,0.00,745.0,meteohub,2013-05-20 23:09:00,
2013-05-20 16:14:00,84.4,36.3,30.06,WSW,248,5.0,14.0,18,0.00,,,0.00,724.0,meteohub,2013-05-20 23:14:00,
2013-05-20 20:17:00,71.1,44.8,30.04,SW,224,2.0,5.0,39,0.00,,,0.00,0.0,meteohub,2013-05-21 03:17:00,
2013-05-20 20:23:00,70.2,45.3,30.04,West,261,1.0,5.0,41,0.00,,,0.00,0.0,meteohub,2013-05-21 03:23:00,
2013-05-20 20:28:00,69.6,45.5,30.04,SSW,202,2.0,5.0,42,0.00,,,0.00,0.0,meteohub,2013-05-21 03:28:00,
2013-05-20 20:33:00,69.3,45.1,30.04,SW,227,2.0,5.0,42,0.00,,,0.00,0.0,meteohub,2013-05-21 03:33:00,
2013-05-20 20:38:00,68.7,45.3,30.04,WSW,248,0.0,5.0,43,0.00,,,0.00,0.0,meteohub,2013-05-21 03:38:00,
2013-05-20 20:43:00,68.2,46.6,30.04,WNW,287,1.0,5.0,46,0.00,,,0.00,0.0,meteohub,2013-05-21 03:43:00,
2013-05-20 20:48:00,67.3,46.9,30.04,SSW,209,0.0,6.0,48,0.00,,,0.00,0.0,meteohub,2013-05-21 03:48:00,
2013-05-20 20:53:00,66.6,47.3,30.04,WSW,252,2.0,7.0,50,0.00,,,0.00,0.0,meteohub,2013-05-21 03:53:00,
2013-05-20 20:58:00,65.8,46.8,30.04,SW,236,4.0,7.0,50,0.00,,,0.00,0.0,meteohub,2013-05-21 03:58:00,
2013-05-20 21:01:00,65.8,46.8,30.04,SSW,192,5.0,7.0,50,0.00,,,0.00,0.0,meteohub,2013-05-21 04:01:00,
2013-05-20 21:02:00,65.7,46.6,30.04,SSW,205,0.0,7.0,50,0.00,,,0.00,0.0,meteohub,2013-05-21 04:02:00,
2013-05-20 21:07:00,65.5,45.9,30.04,WSW,237,0.0,7.0,49,0.00,,,0.00,0.0,meteohub,2013-05-21 04:07:00,
2013-05-20 21:08:00,65.5,46.4,30.04,SW,225,0.0,7.0,50,0.00,,,0.00,0.0,meteohub,2013-05-21 04:08:00,
2013-05-20 21:13:00,65.1,46.0,30.04,West,271,2.0,7.0,50,0.00,,,0.00,0.0,meteohub,2013-05-21 04:13:00,
2013-05-20 21:18:00,64.9,45.9,30.04,SW,220,1.0,6.0,50,0.00,,,0.00,0.0,meteohub,2013-05-21 04:18:00,
2013-05-20 21:23:00,64.6,46.6,30.04,SW,221,4.0,7.0,52,0.00,,,0.00,0.0,meteohub,2013-05-21 04:23:00,
2013-05-20 21:28:00,64.2,46.8,30.05,SW,232,2.0,7.0,53,0.00,,,0.00,0.0,meteohub,2013-05-21 04:28:00,
2013-05-20 21:33:00,63.9,46.9,30.05,WSW,237,2.0,5.0,54,0.00,,,0.00,0.0,meteohub,2013-05-21 04:33:00,
2013-05-20 21:38:00,63.1,47.1,30.05,WSW,250,3.0,6.0,56,0.00,,,0.00,0.0,meteohub,2013-05-21 04:38:00,
2013-05-20 21:43:00,62.6,47.1,30.05,West,261,1.0,6.0,57,0.00,,,0.00,0.0,meteohub,2013-05-21 04:43:00,
2013-05-20 21:48:00,62.1,47.5,30.05,SW,236,1.0,9.0,59,0.00,,,0.00,0.0,meteohub,2013-05-21 04:48:00,
2013-05-20 21:54:00,61.5,47.5,30.05,WSW,237,2.0,9.0,60,0.00,,,0.00,0.0,meteohub,2013-05-21 04:54:00,
2013-05-20 21:59:00,61.2,47.7,30.05,SW,235,0.0,9.0,61,0.00,,,0.00,0.0,meteohub,2013-05-21 04:59:00,
2013-05-20 22:04:00,61.0,47.8,30.05,SW,219,3.0,8.0,62,0.00,,,0.00,0.0,meteohub,2013-05-21 05:04:00,
2013-05-20 22:09:00,60.4,47.3,30.05,WSW,257,2.0,6.0,62,0.00,,,0.00,0.0,meteohub,2013-05-21 05:09:00,
2013-05-20 22:14:00,60.1,47.5,30.06,SW,231,3.0,8.0,63,0.00,,,0.00,0.0,meteohub,2013-05-21 05:14:00,
2013-05-20 22:19:00,59.5,47.8,30.06,WSW,242,4.0,8.0,65,0.00,,,0.00,0.0,meteohub,2013-05-21 05:19:00,
2013-05-20 22:24:00,59.0,47.3,30.06,West,260,0.0,8.0,65,0.00,,,0.00,0.0,meteohub,2013-05-21 05:24:00,
2013-05-20 22:29:00,58.5,47.5,30.06,WNW,297,0.0,7.0,67,0.00,,,0.00,0.0,meteohub,2013-05-21 05:29:00,
2013-05-20 22:34:00,57.9,47.5,30.06,WSW,250,0.0,7.0,68,0.00,,,0.00,0.0,meteohub,2013-05-21 05:34:00,
2013-05-20 22:39:00,57.6,47.5,30.06,WSW,238,2.0,4.0,69,0.00,,,0.00,0.0,meteohub,2013-05-21 05:39:00,
2013-05-20 22:44:00,57.4,47.7,30.06,SW,221,1.0,6.0,70,0.00,,,0.00,0.0,meteohub,2013-05-21 05:44:00,
2013-05-20 22:49:00,56.8,47.1,30.06,SW,236,1.0,6.0,70,0.00,,,0.00,0.0,meteohub,2013-05-21 05:49:00,
2013-05-20 22:54:00,56.7,47.3,30.05,SW,234,0.0,6.0,71,0.00,,,0.00,0.0,meteohub,2013-05-21 05:54:00,
2013-05-20 22:59:00,56.3,47.5,30.05,SW,228,1.0,4.0,72,0.00,,,0.00,0.0,meteohub,2013-05-21 05:59:00,
2013-05-20 23:04:00,56.1,47.3,30.05,WSW,245,0.0,4.0,72,0.00,,,0.00,0.0,meteohub,2013-05-21 06:04:00,
2013-05-20 23:09:00,55.9,47.1,30.05,WSW,245,0.0,4.0,72,0.00,,,0.00,0.0,meteohub,2013-05-21 06:09:00,
2013-05-20 23:14:00,55.8,47.3,30.05,WSW,256,1.0,4.0,73,0.00,,,0.00,0.0,meteohub,2013-05-21 06:14:00,
2013-05-20 23:19:00,55.8,47.3,30.06,WSW,252,1.0,4.0,73,0.00,,,0.00,0.0,meteohub,2013-05-21 06:19:00,
2013-05-20 23:25:00,55.6,47.1,30.05,SW,223,2.0,3.0,73,0.00,,,0.00,0.0,meteohub,2013-05-21 06:25:00,
2013-05-20 23:30:00,55.4,47.3,30.05,SW,225,0.0,4.0,74,0.00,,,0.00,0.0,meteohub,2013-05-21 06:30:00,
2013-05-20 23:35:00,55.2,47.1,30.05,SW,232,2.0,5.0,74,0.00,,,0.00,0.0,meteohub,2013-05-21 06:35:00,
2013-05-20 23:40:00,55.2,47.1,30.06,WSW,246,2.0,6.0,74,0.00,,,0.00,0.0,meteohub,2013-05-21 06:40:00,
2013-05-20 23:45:00,55.0,46.9,30.05,WSW,240,0.0,6.0,74,0.00,,,0.00,0.0,meteohub,2013-05-21 06:45:00,
2013-05-20 23:50:00,55.0,46.9,30.05,West,273,3.0,5.0,74,0.00,,,0.00,0.0,meteohub,2013-05-21 06:50:00,
2013-05-20 23:55:00,54.9,46.8,30.05,West,276,4.0,11.0,74,0.00,,,0.00,0.0,meteohub,2013-05-21 06:55:00,